TRS824 KSDF-KATL

Flight info

Callsign TRS824
Flight time N/A
Altitude 32000
Route HIDEY1 RAMRD BNA/N0460F330 NEWBB IHAVE MTHEW CHPPR1
Aircraft B738/M-SDE2E3FGHIRWXY/LB1

Departure

Time 2026-04-29 15:44
Airport Louisville Muhammad Ali International Airport (KSDF)

Arrival

Time N/A
Airport Hartsfield Jackson Atlanta International Airport (KATL)
Time Latitude Longitude Altitude Speed Heading
2026-04-29 15:16 38.18277 -85.74064 481 ft 0 kts 278°
2026-04-29 15:31 38.18277 -85.74063 481 ft 1 kts 279°
2026-04-29 15:32 38.18275 -85.74049 481 ft 0 kts 278°
2026-04-29 15:32 38.18275 -85.74046 481 ft 2 kts 278°
2026-04-29 15:32 38.18273 -85.74027 481 ft 2 kts 278°
2026-04-29 15:32 38.18270 -85.74008 481 ft 2 kts 292°
2026-04-29 15:33 38.18262 -85.73991 481 ft 2 kts 312°
2026-04-29 15:33 38.18250 -85.73980 481 ft 2 kts 333°
2026-04-29 15:33 38.18241 -85.73975 481 ft 1 kts 332°
2026-04-29 15:33 38.18230 -85.73961 481 ft 2 kts 296°
2026-04-29 15:34 38.18227 -85.73943 482 ft 2 kts 268°
2026-04-29 15:34 38.18229 -85.73927 482 ft 0 kts 242°
2026-04-29 15:34 38.18233 -85.73920 482 ft 1 kts 237°
2026-04-29 15:34 38.18234 -85.73918 482 ft 0 kts 238°
2026-04-29 15:36 38.18231 -85.73924 482 ft 3 kts 238°
2026-04-29 15:37 38.18207 -85.73975 481 ft 7 kts 240°
2026-04-29 15:37 38.18180 -85.74036 481 ft 7 kts 240°
2026-04-29 15:37 38.18152 -85.74097 481 ft 7 kts 240°
2026-04-29 15:37 38.18128 -85.74152 481 ft 6 kts 240°
2026-04-29 15:38 38.18111 -85.74188 481 ft 0 kts 237°
2026-04-29 15:38 38.18102 -85.74199 481 ft 5 kts 217°
2026-04-29 15:39 38.18057 -85.74202 481 ft 9 kts 167°
2026-04-29 15:39 38.18011 -85.74181 481 ft 12 kts 156°
2026-04-29 15:39 38.17943 -85.74085 481 ft 13 kts 112°
2026-04-29 15:39 38.17905 -85.73958 481 ft 15 kts 110°
2026-04-29 15:40 38.17867 -85.73835 481 ft 14 kts 111°
2026-04-29 15:40 38.17831 -85.73718 481 ft 14 kts 111°
2026-04-29 15:40 38.17807 -85.73640 481 ft 13 kts 110°
2026-04-29 15:40 38.17759 -85.73479 481 ft 17 kts 109°
2026-04-29 15:41 38.17709 -85.73303 481 ft 23 kts 112°
2026-04-29 15:41 38.17645 -85.73106 481 ft 23 kts 111°
2026-04-29 15:41 38.17607 -85.72978 483 ft 22 kts 110°
2026-04-29 15:41 38.17530 -85.72727 481 ft 22 kts 112°
2026-04-29 15:42 38.17473 -85.72542 481 ft 21 kts 110°
2026-04-29 15:42 38.17443 -85.72444 481 ft 8 kts 110°
2026-04-29 15:42 38.17416 -85.72380 481 ft 7 kts 129°
2026-04-29 15:42 38.17410 -85.72373 481 ft 1 kts 145°
2026-04-29 15:43 38.17368 -85.72368 481 ft 8 kts 196°
2026-04-29 15:43 38.17329 -85.72388 481 ft 8 kts 216°
2026-04-29 15:43 38.17377 -85.72615 479 ft 58 kts 291°
2026-04-29 15:43 38.17616 -85.73401 480 ft 129 kts 290°
2026-04-29 15:44 38.17997 -85.74654 689 ft 165 kts 293°
2026-04-29 15:44 38.18513 -85.75935 1550 ft 162 kts 304°
2026-04-29 15:44 38.18982 -85.77293 2101 ft 180 kts 276°
2026-04-29 15:44 38.18782 -85.78900 2614 ft 194 kts 259°
2026-04-29 15:45 38.18525 -85.80638 3142 ft 205 kts 266°
2026-04-29 15:45 38.18437 -85.82420 3666 ft 216 kts 270°
2026-04-29 15:45 38.18359 -85.84409 4190 ft 232 kts 268°
2026-04-29 15:45 38.18220 -85.86491 4814 ft 243 kts 266°
2026-04-29 15:46 38.18108 -85.87917 5245 ft 249 kts 265°
2026-04-29 15:46 38.17460 -85.90769 6227 ft 260 kts 240°
2026-04-29 15:46 38.16297 -85.92532 7131 ft 261 kts 229°
2026-04-29 15:46 38.14985 -85.94169 7866 ft 265 kts 228°
2026-04-29 15:47 38.13679 -85.95816 8645 ft 267 kts 230°
2026-04-29 15:47 38.12378 -85.97517 9389 ft 269 kts 230°
2026-04-29 15:47 38.11599 -85.98554 9825 ft 271 kts 231°
2026-04-29 15:47 38.09835 -86.00923 10645 ft 281 kts 232°
2026-04-29 15:48 38.08452 -86.02787 11086 ft 295 kts 232°
2026-04-29 15:48 38.07490 -86.04062 11363 ft 305 kts 231°
2026-04-29 15:48 38.05053 -86.06252 11837 ft 339 kts 211°
2026-04-29 15:48 38.02783 -86.07317 12183 ft 360 kts 205°
2026-04-29 15:49 38.01148 -86.07941 12545 ft 367 kts 204°
2026-04-29 15:49 37.98653 -86.08844 13088 ft 377 kts 204°
2026-04-29 15:49 37.95288 -86.10090 14066 ft 381 kts 205°
2026-04-29 15:49 37.92848 -86.11034 14914 ft 380 kts 205°
2026-04-29 15:50 37.90330 -86.12041 15742 ft 380 kts 206°
2026-04-29 15:50 37.87754 -86.13094 16483 ft 383 kts 206°
2026-04-29 15:50 37.86053 -86.13796 16971 ft 385 kts 206°
2026-04-29 15:50 37.82648 -86.15206 17971 ft 387 kts 207°
2026-04-29 15:51 37.80091 -86.16263 18718 ft 388 kts 207°
2026-04-29 15:51 37.77526 -86.17323 19358 ft 392 kts 207°
2026-04-29 15:51 37.74974 -86.18375 19964 ft 396 kts 207°
2026-04-29 15:51 37.72292 -86.19481 20585 ft 400 kts 207°
2026-04-29 15:52 37.69618 -86.20580 21272 ft 401 kts 207°
2026-04-29 15:52 37.66972 -86.21664 21869 ft 404 kts 207°
2026-04-29 15:52 37.64288 -86.22765 22437 ft 407 kts 208°
2026-04-29 15:52 37.61579 -86.23874 23058 ft 408 kts 208°
2026-04-29 15:53 37.59767 -86.24614 23488 ft 409 kts 208°
2026-04-29 15:53 37.56120 -86.26105 24185 ft 413 kts 208°
2026-04-29 15:53 37.54302 -86.26849 24572 ft 414 kts 208°
2026-04-29 15:53 37.50651 -86.28342 25238 ft 418 kts 208°
2026-04-29 15:54 37.48776 -86.29107 25630 ft 419 kts 208°
2026-04-29 15:54 37.46003 -86.30239 26093 ft 422 kts 208°
2026-04-29 15:54 37.42252 -86.31690 26771 ft 429 kts 206°
2026-04-29 15:54 37.39316 -86.32594 27192 ft 436 kts 204°
2026-04-29 15:55 37.36347 -86.33382 27630 ft 440 kts 202°
2026-04-29 15:55 37.34307 -86.33888 27976 ft 442 kts 202°
2026-04-29 15:55 37.30310 -86.34848 28802 ft 438 kts 202°
2026-04-29 15:55 37.27326 -86.35563 29411 ft 436 kts 202°
2026-04-29 15:56 37.24367 -86.36283 29996 ft 433 kts 203°
2026-04-29 15:56 37.22368 -86.36778 30294 ft 433 kts 203°
2026-04-29 15:56 37.18450 -86.37766 30886 ft 433 kts 203°
2026-04-29 15:56 37.16455 -86.38276 31131 ft 434 kts 203°
2026-04-29 15:57 37.12555 -86.39275 31824 ft 431 kts 204°
2026-04-29 15:57 37.09606 -86.40035 31947 ft 435 kts 203°
2026-04-29 15:57 37.06631 -86.40804 31952 ft 433 kts 204°
2026-04-29 15:58 37.00672 -86.42339 31949 ft 434 kts 203°
2026-04-29 15:58 36.95760 -86.43604 31957 ft 433 kts 203°
2026-04-29 15:59 36.88873 -86.45459 31959 ft 432 kts 205°
2026-04-29 15:59 36.84033 -86.46947 31959 ft 432 kts 206°
2026-04-29 16:00 36.78182 -86.48795 31960 ft 432 kts 206°
2026-04-29 16:00 36.72320 -86.50626 32027 ft 436 kts 206°
2026-04-29 16:00 36.69379 -86.51541 32455 ft 435 kts 206°
2026-04-29 16:01 36.65470 -86.52743 32940 ft 436 kts 206°
2026-04-29 16:01 36.59524 -86.54569 32961 ft 438 kts 206°
2026-04-29 16:02 36.53600 -86.56373 32961 ft 435 kts 205°
2026-04-29 16:02 36.48686 -86.57865 32969 ft 438 kts 206°
2026-04-29 16:03 36.41776 -86.59972 32969 ft 437 kts 206°
2026-04-29 16:03 36.36801 -86.61481 32972 ft 437 kts 205°
2026-04-29 16:04 36.30883 -86.63273 32971 ft 439 kts 205°
2026-04-29 16:04 36.23921 -86.65380 32970 ft 439 kts 205°
2026-04-29 16:05 36.17874 -86.66850 32969 ft 453 kts 195°
2026-04-29 16:05 36.15715 -86.66917 32971 ft 466 kts 188°
2026-04-29 16:05 36.12473 -86.66370 32971 ft 483 kts 176°
2026-04-29 16:05 36.08158 -86.64487 32974 ft 502 kts 163°
2026-04-29 16:06 36.05020 -86.62559 32968 ft 506 kts 161°
2026-04-29 16:06 35.99854 -86.59024 32975 ft 507 kts 158°
2026-04-29 16:07 35.93760 -86.54643 32973 ft 509 kts 158°
2026-04-29 16:07 35.87658 -86.50257 32974 ft 508 kts 158°
2026-04-29 16:08 35.80492 -86.45176 32971 ft 506 kts 158°
2026-04-29 16:08 35.74371 -86.40882 32969 ft 507 kts 158°
2026-04-29 16:09 35.68242 -86.36571 32972 ft 507 kts 157°
2026-04-29 16:09 35.62091 -86.32209 32974 ft 507 kts 158°
2026-04-29 16:10 35.56205 -86.28025 32969 ft 507 kts 158°
2026-04-29 16:10 35.50091 -86.23692 32973 ft 505 kts 157°
2026-04-29 16:11 35.43993 -86.19350 32983 ft 510 kts 155°
2026-04-29 16:11 35.39131 -86.15253 32979 ft 514 kts 149°
2026-04-29 16:12 35.33488 -86.09815 32988 ft 514 kts 147°
2026-04-29 16:12 35.27924 -86.04247 32992 ft 515 kts 147°
2026-04-29 16:13 35.21435 -85.97845 32997 ft 512 kts 147°
2026-04-29 16:13 35.16743 -85.93317 32994 ft 514 kts 148°
2026-04-29 16:14 35.10165 -85.87032 32990 ft 514 kts 148°
2026-04-29 16:14 35.04531 -85.81670 32985 ft 514 kts 148°
2026-04-29 16:15 34.98905 -85.76318 32953 ft 510 kts 147°
2026-04-29 16:15 34.97045 -85.74549 32701 ft 510 kts 148°
2026-04-29 16:15 34.93334 -85.71025 31968 ft 506 kts 147°
2026-04-29 16:15 34.90588 -85.68419 31231 ft 506 kts 147°
2026-04-29 16:16 34.87779 -85.65758 30372 ft 508 kts 147°
2026-04-29 16:16 34.85891 -85.63973 29755 ft 510 kts 147°
2026-04-29 16:16 34.83111 -85.61346 28823 ft 514 kts 147°
2026-04-29 16:16 34.80270 -85.58664 28034 ft 513 kts 147°
2026-04-29 16:17 34.76535 -85.55132 27277 ft 505 kts 147°
2026-04-29 16:17 34.73776 -85.52520 26650 ft 502 kts 147°
2026-04-29 16:17 34.71948 -85.50791 26221 ft 500 kts 147°
2026-04-29 16:17 34.68328 -85.47369 25369 ft 495 kts 147°
2026-04-29 16:18 34.66496 -85.45640 24933 ft 493 kts 147°
2026-04-29 16:18 34.62913 -85.42261 24084 ft 489 kts 147°
2026-04-29 16:18 34.60231 -85.39735 23438 ft 485 kts 147°
2026-04-29 16:18 34.57565 -85.37226 22788 ft 482 kts 146°
2026-04-29 16:19 34.55788 -85.35556 22356 ft 480 kts 146°
2026-04-29 16:19 34.52225 -85.32210 21492 ft 475 kts 147°
2026-04-29 16:19 34.50506 -85.30598 21071 ft 473 kts 147°
2026-04-29 16:19 34.47024 -85.27336 20199 ft 468 kts 147°
2026-04-29 16:20 34.44456 -85.24932 19547 ft 465 kts 147°
2026-04-29 16:20 34.41913 -85.22551 18916 ft 462 kts 147°
2026-04-29 16:20 34.40227 -85.20973 18485 ft 460 kts 146°
2026-04-29 16:20 34.37688 -85.18600 17810 ft 455 kts 146°
2026-04-29 16:21 34.35222 -85.16296 17172 ft 441 kts 147°
2026-04-29 16:21 34.32848 -85.14079 16549 ft 426 kts 146°
2026-04-29 16:21 34.29797 -85.11221 15746 ft 408 kts 146°
2026-04-29 16:21 34.27546 -85.09111 15143 ft 398 kts 146°
2026-04-29 16:22 34.26108 -85.07762 14755 ft 391 kts 145°
2026-04-29 16:22 34.23989 -85.05779 14185 ft 381 kts 146°
2026-04-29 16:22 34.21924 -85.03861 13687 ft 368 kts 145°
2026-04-29 16:22 34.19933 -85.02018 13442 ft 357 kts 146°
2026-04-29 16:23 34.17330 -84.99613 13246 ft 343 kts 145°
2026-04-29 16:23 34.16092 -84.98471 13162 ft 341 kts 145°
2026-04-29 16:23 34.14211 -84.96738 12971 ft 336 kts 144°
2026-04-29 16:23 34.12355 -84.95001 12952 ft 341 kts 144°
2026-04-29 16:24 34.09860 -84.92634 12958 ft 343 kts 144°
2026-04-29 16:24 34.08591 -84.91425 12958 ft 345 kts 144°
2026-04-29 16:24 34.06102 -84.89059 12964 ft 342 kts 144°
2026-04-29 16:24 34.04223 -84.87277 12968 ft 343 kts 144°
2026-04-29 16:25 34.02350 -84.85505 12969 ft 342 kts 144°
2026-04-29 16:25 34.01087 -84.84310 12972 ft 342 kts 144°
2026-04-29 16:25 33.99298 -84.82623 12975 ft 343 kts 144°
2026-04-29 16:25 33.96778 -84.80248 12975 ft 343 kts 144°
2026-04-29 16:26 33.95519 -84.79060 12973 ft 343 kts 144°
2026-04-29 16:26 33.93018 -84.76705 12972 ft 342 kts 144°
2026-04-29 16:26 33.91123 -84.74919 12975 ft 343 kts 144°
2026-04-29 16:26 33.89851 -84.73719 12976 ft 342 kts 144°
2026-04-29 16:27 33.87995 -84.71971 12973 ft 341 kts 144°
2026-04-29 16:27 33.85450 -84.69576 12973 ft 344 kts 144°
2026-04-29 16:27 33.83564 -84.67806 12973 ft 343 kts 144°
2026-04-29 16:27 33.81687 -84.66045 12972 ft 340 kts 144°
2026-04-29 16:28 33.79813 -84.64287 12972 ft 341 kts 144°
2026-04-29 16:28 33.78532 -84.63088 12973 ft 342 kts 144°
2026-04-29 16:28 33.76641 -84.61314 12972 ft 342 kts 144°
2026-04-29 16:28 33.74841 -84.59410 12968 ft 345 kts 134°
2026-04-29 16:29 33.73223 -84.56157 12878 ft 346 kts 103°
2026-04-29 16:29 33.72943 -84.54275 12550 ft 347 kts 91°
2026-04-29 16:29 33.72921 -84.51363 12066 ft 345 kts 84°
2026-04-29 16:29 33.73107 -84.47533 11437 ft 343 kts 83°
2026-04-29 16:30 33.73222 -84.44729 11008 ft 334 kts 84°
2026-04-29 16:30 33.73268 -84.42860 10723 ft 327 kts 85°
2026-04-29 16:30 33.73308 -84.39305 10178 ft 315 kts 86°
2026-04-29 16:30 33.73312 -84.36712 9907 ft 301 kts 86°
2026-04-29 16:31 33.73309 -84.35069 9733 ft 295 kts 86°
2026-04-29 16:31 33.73312 -84.32625 9310 ft 290 kts 87°
2026-04-29 16:31 33.73320 -84.29396 8810 ft 290 kts 87°
2026-04-29 16:31 33.73324 -84.26975 8446 ft 290 kts 87°
2026-04-29 16:32 33.73331 -84.24564 8086 ft 289 kts 87°
2026-04-29 16:32 33.73337 -84.22968 7844 ft 289 kts 88°
2026-04-29 16:32 33.73341 -84.20540 7471 ft 290 kts 88°
2026-04-29 16:32 33.73342 -84.18111 7109 ft 289 kts 88°
2026-04-29 16:33 33.73346 -84.13299 6371 ft 283 kts 88°
2026-04-29 16:33 33.73349 -84.10947 6026 ft 280 kts 88°
2026-04-29 16:33 33.73354 -84.07837 5565 ft 274 kts 89°
2026-04-29 16:34 33.73356 -84.06343 5329 ft 270 kts 89°
2026-04-29 16:34 33.73111 -84.04142 5055 ft 261 kts 112°
2026-04-29 16:34 33.72103 -84.02486 4959 ft 237 kts 145°
2026-04-29 16:34 33.70748 -84.01554 4967 ft 211 kts 165°
2026-04-29 16:35 33.69387 -84.01055 4967 ft 204 kts 176°
2026-04-29 16:35 33.67999 -84.01045 4970 ft 194 kts 200°
2026-04-29 16:35 33.66760 -84.01608 4970 ft 186 kts 216°
2026-04-29 16:35 33.65381 -84.02814 4967 ft 180 kts 233°
2026-04-29 16:36 33.64898 -84.03597 4968 ft 176 kts 245°
2026-04-29 16:36 33.64573 -84.04981 4963 ft 172 kts 275°
2026-04-29 16:36 33.64760 -84.06419 4972 ft 180 kts 278°
2026-04-29 16:36 33.64925 -84.07930 4966 ft 183 kts 274°
2026-04-29 16:37 33.64924 -84.09957 4968 ft 182 kts 270°
2026-04-29 16:37 33.64909 -84.11488 4969 ft 181 kts 271°
2026-04-29 16:37 33.64908 -84.12498 4971 ft 184 kts 271°
2026-04-29 16:37 33.64913 -84.14030 4969 ft 182 kts 271°
2026-04-29 16:38 33.64917 -84.15565 4861 ft 184 kts 271°
2026-04-29 16:38 33.64921 -84.17113 4636 ft 183 kts 271°
2026-04-29 16:38 33.64924 -84.18624 4567 ft 182 kts 271°
2026-04-29 16:38 33.64928 -84.20624 4235 ft 178 kts 271°
2026-04-29 16:39 33.64932 -84.22092 4007 ft 173 kts 270°
2026-04-29 16:39 33.64933 -84.23044 3855 ft 169 kts 270°
2026-04-29 16:39 33.64937 -84.24890 3559 ft 162 kts 270°
2026-04-29 16:39 33.64940 -84.26209 3334 ft 156 kts 270°
2026-04-29 16:40 33.64941 -84.27058 3192 ft 146 kts 270°
2026-04-29 16:40 33.64944 -84.28231 3056 ft 137 kts 270°
2026-04-29 16:40 33.64944 -84.29770 2771 ft 133 kts 269°
2026-04-29 16:40 33.64945 -84.30519 2670 ft 137 kts 269°
2026-04-29 16:41 33.64948 -84.31666 2475 ft 137 kts 270°
2026-04-29 16:41 33.64948 -84.32792 2307 ft 135 kts 269°
2026-04-29 16:41 33.64949 -84.34295 2077 ft 134 kts 270°
2026-04-29 16:41 33.64951 -84.35426 1884 ft 133 kts 269°
2026-04-29 16:42 33.64949 -84.36558 1697 ft 138 kts 269°
2026-04-29 16:42 33.64950 -84.37304 1597 ft 132 kts 270°
2026-04-29 16:42 33.64958 -84.38419 1401 ft 133 kts 270°
2026-04-29 16:42 33.64956 -84.39944 1235 ft 139 kts 269°
2026-04-29 16:43 33.64954 -84.40717 1084 ft 141 kts 270°
2026-04-29 16:43 33.64953 -84.41873 976 ft 127 kts 269°